Date,Time,WIND DIRECTION (cAVG),AIR TEMP (AVG),WIND SPEED (AVG),BAROMETER (AVG),Rain Duration (SUM),Humidity (AVG),SOLAR (AVG),Rain (SUM),ETo (SUM)
02-03-2015,00:00:00,242.9,9.5,2.1,980.3,6457.9,75.2,104.3,185.1,45.29
01-04-2015,00:00:00,197.0,11.6,1.6,983.3,2032.1,75.7,149.5,62.9,63.03
01-05-2015,00:00:00,223.3,14.5,1.9,983.2,1020.0,62.0,235.0,19.4,107.14
31-05-2015,00:00:00,*,*,*,*,*,*,*,*,*
30-06-2015,00:00:00,61.2,22.3,1.7,979.6,380.9,59.1,278.0,16.5,147.27
30-07-2015,00:00:00,49.7,25.9,1.9,978.1,13.0,49.8,314.1,0.6,184.05
29-08-2015,00:00:00,72.4,26.3,1.6,978.7,298.1,58.3,267.0,26.4,157.72
28-09-2015,00:00:00,107.1,24.7,1.4,980.0,625.9,62.1,212.6,35.4,127.15
28-10-2015,00:00:00,124.4,20.0,1.5,982.2,823.9,71.0,142.2,31.3,80.74
27-11-2015,00:00:00,150.1,16.1,1.4,985.1,1048.1,73.2,112.2,30.4,59.17
27-12-2015,00:00:00,77.0,12.1,1.3,990.9,420.8,73.1,80.5,5.9,40.36
26-01-2016,00:00:00,240.9,10.4,1.6,986.1,1795.2,73.6,79.6,52.3,40.12
25-02-2016,00:00:00,220.7,12.7,1.7,985.3,1187.7,68.3,126.8,26.2,63.82
26-03-2016,00:00:00,214.7,13.0,1.8,980.6,1153.6,67.5,172.9,27.4,79.53
25-04-2016,00:00:00,229.4,17.3,1.6,980.0,260.7,54.2,241.2,6.0,123.87
25-05-2016,00:00:00,243.4,19.6,1.6,980.0,888.6,54.1,251.5,23.1,132.42
24-06-2016,00:00:00,52.9,24.4,1.7,978.9,257.4,48.0,278.1,6.7,163.26
24-07-2016,00:00:00,48.9,26.3,2.1,977.8,0.0,45.7,295.6,0.0,185.49
23-08-2016,00:00:00,65.7,26.5,2.0,978.1,42.6,50.1,267.4,2.4,168.53
22-09-2016,00:00:00,51.2,24.0,1.7,980.7,248.4,55.8,220.6,6.2,135.91
22-10-2016,00:00:00,65.5,20.9,1.6,983.3,545.5,62.7,163.5,32.1,98.81
21-11-2016,00:00:00,150.6,16.8,1.3,985.4,673.5,70.7,115.9,25.9,64.09
21-12-2016,00:00:00,310.2,10.8,1.4,987.4,3036.5,74.5,75.3,50.7,37.68
20-01-2017,00:00:00,254.0,8.4,1.5,985.7,3437.4,74.5,69.9,89.1,33.68
19-02-2017,00:00:00,211.5,9.5,1.5,986.3,1427.5,73.4,95.5,49.4,44.22
21-03-2017,00:00:00,169.5,11.5,1.4,982.8,2318.7,72.8,149.3,60.3,63.60
20-04-2017,00:00:00,182.7,14.0,1.4,981.6,1408.9,65.7,205.8,33.3,92.69
20-05-2017,00:00:00,*,*,*,*,378.4,*,*,*,96.42
19-06-2017,00:00:00,*,*,*,*,162.6,*,*,*,70.07
19-07-2017,00:00:00,*,*,*,*,0.0,*,*,*,138.50
18-08-2017,00:00:00,52.0,26.5,2.0,977.5,0.0,48.2,292.8,0.0,180.13
17-09-2017,00:00:00,81.6,24.8,1.7,979.6,48.0,51.0,247.0,3.1,151.53
17-10-2017,00:00:00,87.3,20.7,1.4,982.2,304.9,59.0,183.9,16.6,106.78
16-11-2017,00:00:00,133.8,16.1,1.3,983.5,907.1,70.7,128.0,30.8,65.94
16-12-2017,00:00:00,208.9,13.0,1.2,985.0,2111.6,76.8,84.2,63.5,41.38
15-01-2018,00:00:00,235.0,11.3,1.5,985.4,2239.3,75.5,73.6,61.2,37.72
14-02-2018,00:00:00,231.2,11.2,1.6,982.5,1981.2,73.8,92.7,54.5,45.84
16-03-2018,00:00:00,209.8,13.2,1.7,979.0,1681.2,70.6,136.7,52.2,67.26
15-04-2018,00:00:00,171.2,16.2,1.6,979.4,400.6,58.3,202.8,7.7,104.39
15-05-2018,00:00:00,96.8,19.8,1.5,979.6,137.9,52.7,246.6,12.7,131.17
14-06-2018,00:00:00,14.5,22.8,1.6,977.8,382.1,55.4,266.7,40.2,146.57
14-07-2018,00:00:00,329.9,25.5,1.6,976.9,356.3,53.3,287.1,35.7,166.27
13-08-2018,00:00:00,52.3,26.7,1.7,977.0,92.9,53.7,279.6,4.9,169.41
12-09-2018,00:00:00,64.8,25.0,1.8,979.0,245.8,58.4,242.1,13.6,146.61
12-10-2018,00:00:00,81.6,21.6,1.5,982.1,616.1,64.7,177.2,22.4,104.68
11-11-2018,00:00:00,126.3,17.7,1.4,983.9,1194.9,72.7,123.0,37.8,67.50
11-12-2018,00:00:00,178.1,14.2,1.5,983.9,2911.7,75.7,83.5,94.9,44.72
10-01-2019,00:00:00,222.9,10.3,1.5,982.0,4816.5,77.8,62.5,144.3,31.21
09-02-2019,00:00:00,206.0,9.3,1.5,979.1,5384.7,78.1,71.4,232.7,33.87
11-03-2019,00:00:00,199.8,10.6,1.5,982.7,3238.5,77.5,114.5,143.8,48.94
10-04-2019,00:00:00,240.4,13.0,1.6,982.3,1686.6,70.1,179.8,68.8,79.40
10-05-2019,00:00:00,229.2,16.0,1.6,980.8,1152.9,61.8,213.0,81.2,104.17
09-06-2019,00:00:00,198.8,20.8,1.6,979.6,157.0,55.1,256.7,3.2,139.42
09-07-2019,00:00:00,48.3,25.2,1.8,978.6,60.7,51.4,290.6,7.3,168.95
08-08-2019,00:00:00,64.7,26.3,1.8,977.0,111.3,49.1,296.4,20.2,175.77
07-09-2019,00:00:00,70.4,25.7,1.9,978.4,0.0,52.6,262.4,0.0,161.04
07-10-2019,00:00:00,78.9,22.5,1.6,981.2,69.6,60.0,199.0,3.5,121.15
06-11-2019,00:00:00,127.4,19.9,1.3,982.6,535.4,73.3,143.7,31.7,79.93
06-12-2019,00:00:00,186.2,16.5,1.1,982.2,1878.3,78.6,92.6,107.8,49.38
05-01-2020,00:00:00,*,*,*,*,3996.8,*,*,132.6,33.17
04-02-2020,00:00:00,*,*,*,*,4329.3,*,*,101.8,32.17
05-03-2020,00:00:00,258.3,10.9,1.6,984.0,2614.5,77.3,111.2,60.8,48.37
04-04-2020,00:00:00,209.3,12.6,1.7,980.9,1360.2,72.1,162.3,59.3,68.58
04-05-2020,00:00:00,73.3,15.3,1.6,980.6,491.8,63.6,217.0,10.5,102.32
03-06-2020,00:00:00,17.1,21.2,1.5,981.4,72.2,51.9,283.3,1.1,142.55
03-07-2020,00:00:00,141.8,23.0,1.6,977.7,253.9,57.3,306.7,7.9,163.91
02-08-2020,00:00:00,70.4,26.4,1.9,976.4,31.9,47.9,310.1,0.3,181.06
01-09-2020,00:00:00,63.7,26.8,1.8,976.4,116.1,47.3,281.3,4.6,176.81
